BHQ weather

Broken Hill Airport
Broken Hill, New South Wales, Australia

Public forecast

Using degrees Celsius for public forecast. Weather courtesy of forecast.io.

Current aviation weather report (METAR) for Broken Hill Airport

Retrieved 2020/02/24 05:00 UTC (42 minutes ago):

YBHI 240500Z AUTO 10008KT 080V150 9999 // SCT059 30/12 Q1015

Closest aviation forecast (TAF) to Broken Hill Airport

Forecast is more than 12 hours old.

Closest forecast is Whyalla Airport, 210.2 nm (389.2 km) WSW. Retrieved 2018/11/15 18:03 UTC (1 year ago):

TAF YWHA 151701Z 1518/1608 VRB05KT CAVOK FM152300 18012KT CAVOK FM160200 18018KT CAVOK